Wind_Speed
13 15 16 15 15 14 14 14 13 13 13 14 14 14 15 13 14 15 16 23 21 29 27 24 11 8 6 6 16 16 19 25 18 18 15 14 15 14 20 23 16 16 12 13 11 15 19 21 23 20 20 23 28 27
11 12 13 13 13 13 12 12 12 11 11 10 11 11 11 10 8 7 8 9 13 13 11 13 15 13 8 10 11 16 19 17 16 14 18 12 11 11 16 15 18 22 22 20 20 21 25 18 26 21 24 28 29 21
11 13 13 12 12 12 13 11 10 9 8 7 9 8 8 9 7 7 5 4 9 10 12 12 8 10 11 11 14 14 22 16 19 22 19 17 13 16 13 16 20 27 22 26 28 31 23 20 25 25 27 30 26 27
10 13 13 12 11 11 12 12 11 10 10 9 8 8 8 7 5 6 7 5 4 1 6 8 10 14 14 15 16 17 15 19 20 16 17 21 20 19 22 22 25 29 29 38 39 39 38 33 31 32 29 27 30 19
10 8 7 8 11 11 13 13 11 11 11 10 10 10 10 9 8 9 10 10 8 7 8 9 11 15 19 22 24 24 25 25 26 23 22 24 26 27 32 35 40 38 41 41 41 31 32 29 31 31 27 22 24 20
12 10 9 7 11 13 13 14 12 12 12 10 10 11 13 13 13 12 11 12 12 12 15 18 12 6 5 8 10 14 16 27 31 28 31 36 41 32 29 37 42 34 27 24 29 24 26 26 29 31 22 15 19 18
13 12 10 9 12 15 15 14 14 14 15 14 14 13 13 14 16 15 14 8 8 10 13 11 10 4 6 13 15 19 19 16 23 27 31 34 36 30 34 41 36 29 24 20 21 25 28 26 29 23 17 22 25 24
13 12 11 12 12 14 15 16 15 15 14 16 17 16 16 18 20 21 17 13 11 8 9 7 12 15 13 14 15 12 16 17 22 27 30 30 30 32 38 39 33 28 23 19 15 18 23 23 17 20 19 19 15 16
12 13 13 13 13 13 12 12 13 15 16 12 11 13 17 18 17 10 13 14 13 14 7 14 18 17 12 11 13 13 15 17 18 24 24 22 28 26 33 32 29 23 15 14 20 7 3 6 8 16 21 14 14 15
12 13 13 12 11 11 10 11 9 6 4 6 7 10 17 11 11 12 14 19 22 24 26 31 27 27 20 19 16 12 8 11 11 16 12 23 32 27 27 26 24 15 15 21 19 5 9 14 16 17 19 15 11 10
11 11 10 9 9 8 7 6 6 6 8 12 15 17 16 12 9 15 11 12 12 14 24 27 26 28 28 28 23 10 4 4 6 9 10 7 24 10 12 18 18 16 15 17 16 16 19 21 20 17 18 17 13 12
10 9 8 7 7 7 7 8 9 13 15 15 16 18 16 14 9 9 10 10 11 13 18 19 17 15 16 20 17 8 8 5 6 6 7 5 8 2 5 5 9 12 14 15 14 14 29 27 21 21 21 18 14 13
9 9 9 9 7 8 9 8 10 12 11 12 16 16 13 11 10 10 14 15 18 19 15 13 10 10 9 12 7 5 8 8 7 7 7 9 11 1 1 3 8 13 17 15 14 18 17 22 21 21 21 16 14 14
7 8 8 8 9 8 9 11 16 17 16 17 12 10 12 7 11 19 23 25 26 26 21 17 13 7 14 7 4 5 6 5 4 4 5 9 10 10 14 15 14 14 15 14 15 14 13 16 18 20 18 15 13 18
6 5 5 7 8 6 5 6 15 21 22 7 10 8 14 11 13 10 13 14 14 14 13 16 10 11 8 8 5 5 4 5 4 4 4 8 8 12 14 12 12 13 14 16 16 16 19 21 21 20 17 14 20 19
5 1 5 8 2 1 6 13 15 18 18 12 7 5 7 11 13 10 12 13 12 8 14 14 8 6 7 5 7 7 4 4 5 9 11 11 10 17 15 12 11 9 9 10 13 17 19 20 19 14 16 21 19 18
4 1 8 5 2 8 17 12 13 7 4 4 3 8 14 16 14 15 16 15 12 9 19 14 7 7 5 5 6 7 9 15 17 17 20 21 25 22 17 15 13 9 8 7 7 9 11 12 12 19 20 17 15 15
2 2 6 2 3 9 14 23 14 11 9 11 13 18 17 15 13 16 15 16 18 17 17 16 9 9 6 6 10 13 15 15 14 18 22 23 21 16 15 14 13 9 8 7 6 9 11 13 22 21 18 15 12 13
4 4 5 2 4 7 11 16 21 10 19 19 20 23 18 13 7 7 8 12 18 20 21 20 9 12 15 14 14 18 21 24 24 22 21 18 16 14 14 14 10 7 8 9 8 11 10 17 23 20 16 12 11 12
5 6 5 2 6 4 5 8 14 21 22 23 24 23 12 7 4 7 9 10 12 19 19 20 23 18 15 16 20 22 20 17 17 19 15 13 11 9 4 3 4 5 3 6 10 12 13 21 24 19 12 9 11 11
9 8 7 5 6 5 3 3 6 7 8 13 14 11 8 5 4 6 9 11 17 22 21 22 20 20 20 23 20 18 17 17 16 13 7 1 3 4 4 7 9 10 7 7 7 10 12 12 9 8 11 12 12 12
6 9 8 7 7 8 7 7 7 7 9 10 8 8 8 9 8 7 8 12 16 17 16 18 19 15 13 14 13 10 10 11 8 3 6 8 8 8 7 7 6 5 4 4 5 6 6 8 10 11 10 10 12 12
3 4 6 7 7 6 7 10 11 10 7 7 9 10 10 12 13 11 10 10 12 12 11 12 13 12 9 6 4 3 4 4 7 12 12 9 9 7 7 6 6 5 4 2 2 2 4 5 7 9 10 11 12 13
5 4 5 4 7 6 8 9 10 11 11 11 10 13 13 13 14 14 18 18 14 13 12 11 10 8 6 4 3 2 4 5 8 9 7 6 6 4 4 3 2 1 2 3 4 5 7 9 10 12 13 14 14 14
6 4 5 7 7 8 8 11 13 13 12 10 12 11 7 8 10 13 17 17 16 13 12 11 9 7 5 4 3 3 3 4 4 3 3 3 3 3 4 5 6 7 8 8 9 11 12 14 14 14 14 15 15 15
5 5 6 6 7 9 9 8 10 15 14 12 9 10 10 10 9 7 11 11 11 12 12 11 9 7 6 5 4 4 3 3 3 3 3 3 4 5 6 7 8 9 9 10 11 11 11 12 13 13 14 15 16 16
11 10 11 12 12 13 12 13 14 12 14 12 13 12 9 6 6 9 6 8 10 11 12 11 9 8 8 8 7 7 6 6 6 6 6 6 7 8 9 10 11 12 13 14 14 15 15 16 17 17 18 18 19 20
13 17 18 19 17 17 15 16 16 17 19 18 17 13 9 10 14 11 6 9 12 14 14 13 12 12 11 10 10 10 10 9 9 9 9 10 10 10 11 11 12 13 13 14 15 16 17 17 18 19 19 20 20 20
17 18 18 19 18 17 18 19 20 22 20 19 20 22 22 22 20 18 15 13 13 16 17 16 16 15 15 14 13 14 14 13 13 13 12 11 11 12 12 13 13 14 15 15 15 15 16 16 17 17 18 19 19 19
19 19 18 20 20 20 22 18 20 17 18 21 22 24 24 24 23 20 19 19 19 19 18 16 17 19 19 18 17 17 17 16 16 15 14 14 14 15 15 16 17 17 17 16 16 17 17 18 18 19 19 19 19 18
22 23 23 22 23 24 21 19 20 20 20 21 23 23 21 21 23 22 20 20 20 19 20 21 21 21 21 20 20 18 18 18 18 17 16 16 16 17 18 18 17 17 18 18 19 19 20 20 19 18 18 17 16 15
23 23 21 21 21 23 22 22 22 23 21 21 21 21 20 21 22 22 22 21 20 21 21 21 21 21 22 22 22 21 20 19 18 17 16 17 17 16 15 15 17 18 18 17 16 16 14 14 15 14 14 14 14 13
23 20 18 21 22 25 25 24 25 25 25 22 22 21 21 21 20 20 19 20 21 22 21 21 21 23 23 23 21 20 18 18 17 17 17 16 15 15 16 16 16 14 13 13 13 13 14 16 16 15 15 14 14 13
Wind_Direction
249 240 240 245 249 247 246 244 242 242 244 249 248 247 248 245 247 253 265 242 244 252 264 260 246 206 292 263 236 213 205 218 212 213 218 211 220 226 233 247 268 273 270 277 294 245 263 270 273 271 285 279 297 287
248 243 243 245 246 240 240 235 238 238 242 239 234 241 239 239 242 241 249 270 217 242 230 237 231 224 198 245 233 217 205 210 215 221 216 206 212 202 221 244 250 264 267 279 278 282 296 302 291 270 291 291 293 279
244 229 243 250 251 243 224 228 230 227 232 235 224 232 227 223 212 203 213 246 226 246 254 256 240 240 238 245 257 235 239 246 225 215 213 210 220 222 216 241 278 282 276 279 281 264 284 288 278 281 286 289 293 283
231 226 238 250 238 228 219 222 227 234 237 230 221 215 217 217 207 202 204 216 259 245 262 245 240 237 245 247 254 257 244 230 219 235 235 222 226 243 256 264 270 278 279 287 281 269 274 277 283 284 287 276 280 279
214 216 234 252 230 224 217 220 233 237 231 229 227 228 228 229 231 234 230 238 249 257 265 255 253 249 250 251 255 249 242 231 236 240 244 249 258 262 264 270 271 278 280 277 270 276 280 287 281 287 283 270 276 288
220 226 236 260 231 223 222 224 230 224 222 233 241 236 236 241 248 254 253 251 252 255 268 279 269 262 251 249 265 260 258 256 249 253 252 255 260 260 263 268 277 278 275 266 273 276 279 282 282 282 277 264 274 266
223 230 242 262 230 223 228 227 228 229 232 242 246 246 244 245 248 250 252 269 276 262 262 285 289 281 283 273 272 269 268 264 241 248 249 251 252 254 259 265 271 272 262 254 253 257 268 282 285 270 282 293 289 268
221 233 244 257 230 224 228 231 233 237 243 245 244 245 243 241 242 237 240 241 247 282 270 260 269 278 282 280 277 272 254 249 249 251 256 257 257 255 260 260 267 270 276 269 259 251 262 269 271 261 286 290 272 262
228 235 248 245 230 222 227 232 237 237 240 240 233 236 238 237 241 245 237 243 236 235 254 256 258 275 272 288 281 263 254 251 258 257 260 258 254 244 256 263 269 278 251 255 242 228 228 264 279 302 283 292 262 255
226 243 243 232 225 227 233 238 235 236 191 180 196 230 254 257 246 242 236 234 238 236 241 253 254 256 269 281 285 217 217 239 255 272 270 253 261 262 260 263 269 253 251 267 286 267 235 269 286 293 289 308 264 240
235 225 218 221 225 220 212 219 220 226 207 217 233 240 250 251 255 221 224 209 222 238 254 263 265 267 265 268 271 265 252 240 257 265 240 259 282 299 260 253 250 258 255 240 226 240 253 265 274 274 286 288 269 244
202 207 198 190 190 200 218 229 226 223 239 248 251 242 225 216 207 207 210 208 227 239 251 281 286 285 252 247 241 237 228 240 254 237 207 257 330 48 167 204 242 239 236 233 231 247 238 246 262 275 288 283 258 229
187 183 183 191 219 251 260 237 217 223 228 202 189 201 188 201 211 209 212 206 218 232 243 291 289 256 222 209 215 229 210 235 258 222 195 253 274 232 242 266 264 257 271 274 271 261 251 246 255 269 285 276 241 215
189 200 211 237 266 267 265 259 240 222 195 192 187 187 199 216 223 234 244 254 258 260 261 258 272 235 216 205 228 236 242 250 248 234 234 255 276 295 298 298 288 267 258 254 259 263 271 269 267 271 282 269 224 189
192 202 243 276 284 254 292 230 186 179 184 187 191 209 227 243 250 239 236 249 257 238 224 226 254 212 222 217 220 240 239 235 238 243 261 281 319 335 325 309 288 279 267 253 245 238 245 254 261 271 267 220 176 179
160 140 318 323 263 291 164 148 166 178 195 204 227 285 282 267 253 225 237 246 258 201 201 208 209 213 220 208 214 222 236 239 269 294 316 316 312 321 318 316 315 292 270 251 237 237 241 245 249 244 206 186 186 196
132 318 323 334 181 167 168 149 151 190 185 195 261 311 314 278 265 251 247 238 226 205 193 191 208 209 213 224 228 222 236 263 280 290 298 301 303 304 311 311 314 299 278 266 239 229 226 215 214 188 188 191 199 200
79 257 344 39 185 184 192 203 208 224 237 256 296 319 323 306 272 252 250 228 212 215 211 212 215 214 225 222 230 255 274 287 296 302 303 300 306 293 289 295 301 281 260 261 257 217 218 218 187 186 188 194 199 207
345 350 355 24 156 200 220 225 222 250 246 258 278 302 308 304 286 221 239 223 206 210 212 217 227 231 238 255 274 285 287 292 298 299 305 303 299 294 290 288 268 242 245 245 244 218 216 195 185 190 193 201 212 219
278 293 301 312 145 102 210 226 240 246 261 268 278 296 300 302 282 216 215 222 196 209 211 224 234 247 267 278 290 297 293 291 290 294 301 297 293 287 270 197 215 235 235 251 229 224 221 201 191 190 191 221 235 232
264 260 266 254 229 236 256 247 232 254 269 270 278 274 274 276 266 230 221 211 206 215 227 240 257 270 274 280 286 291 290 292 297 298 295 294 99 102 111 121 122 121 113 97 91 109 118 141 172 216 226 236 243 242
260 256 238 236 233 261 262 252 254 272 266 268 269 250 257 253 257 250 250 240 238 242 247 255 267 273 273 274 278 283 297 302 295 227 145 119 108 105 98 98 105 120 142 156 158 160 175 205 221 233 240 241 248 258
280 214 214 232 246 246 258 257 259 262 246 258 240 228 248 252 252 255 245 252 252 253 261 259 261 261 253 246 249 304 355 32 117 130 128 122 115 103 91 82 78 81 90 108 139 181 217 233 245 253 258 262 265 267
360 215 260 244 219 242 258 249 245 251 244 247 238 235 248 259 262 252 249 253 255 255 254 246 233 223 208 203 191 125 98 109 130 136 132 131 124 117 101 82 58 16 306 287 279 271 269 270 272 272 268 266 268 268
282 268 250 246 244 244 251 257 244 241 245 246 248 248 268 261 241 244 254 261 247 244 244 228 220 210 193 178 157 143 136 138 149 177 197 225 243 259 273 286 289 289 291 287 281 277 274 272 273 272 269 268 268 266
255 251 235 247 243 248 247 254 252 242 251 252 249 247 259 242 248 249 265 249 231 211 204 199 195 194 188 186 192 191 185 180 185 200 220 241 259 271 277 282 286 289 287 288 288 286 283 280 277 274 270 268 268 269
241 253 261 268 275 277 268 256 246 245 243 234 245 245 248 235 247 252 264 210 199 195 199 204 205 203 210 215 221 223 224 229 238 246 250 258 267 273 278 282 285 286 287 287 287 286 285 283 280 278 277 276 276 277
260 267 272 279 280 278 273 263 246 242 248 240 240 229 220 233 250 260 255 219 207 210 212 214 216 219 226 232 235 238 242 244 247 253 256 260 264 269 274 278 283 286 287 287 286 286 285 284 284 285 285 284 282 280
274 282 285 283 282 276 269 262 258 253 256 251 246 244 242 250 257 259 258 247 229 226 231 233 234 239 243 244 245 247 250 252 256 262 267 269 269 274 280 287 291 293 293 292 292 291 291 291 290 290 289 288 286 284
283 287 284 281 279 276 276 271 269 266 260 257 254 253 253 254 255 255 254 252 246 239 238 239 245 248 249 251 251 252 253 255 257 260 264 268 272 279 286 289 291 291 291 291 292 293 293 294 294 294 294 293 292 292
287 286 284 282 275 272 273 271 269 268 265 261 259 260 259 254 254 256 253 249 248 246 242 241 244 246 248 249 251 251 250 251 252 255 259 265 273 281 286 288 288 289 291 293 294 293 292 292 293 294 293 293 293 292
294 285 282 272 270 273 273 272 270 269 266 264 261 259 258 254 252 253 253 251 248 250 251 250 248 245 248 251 253 251 248 246 247 252 260 271 278 281 283 286 289 291 292 294 295 296 297 297 296 294 291 290 290 290
303 303 290 273 274 277 274 275 275 274 269 266 261 256 254 254 253 252 252 249 248 248 249 247 246 245 246 246 246 244 242 244 250 259 267 269 272 278 284 287 288 289 290 292 297 300 300 299 299 300 298 295 292 289
Height
2917 2919 2921 2922 2924 2925 2927 2928 2930 2932 2934 2935 2937 2939 2940 2942 2944 2945 2947 2947 2948 2948 2950 2950 2952 2952 2951 2948 2952 2952 2961 2966 2970 2972 2976 2979 2979 2980 2983 2984 2986 2989 2990 2989 2990 2988 2988 2987 2986 2990 2988 2985 2985 2983
2913 2915 2917 2919 2920 2922 2923 2925 2927 2929 2931 2932 2934 2935 2937 2939 2941 2942 2943 2943 2942 2943 2946 2946 2948 2949 2949 2950 2954 2956 2959 2961 2964 2969 2972 2975 2973 2973 2974 2977 2980 2982 2986 2986 2989 2984 2982 2982 2983 2982 2981 2977 2975 2975
2910 2912 2914 2916 2917 2919 2921 2923 2925 2927 2929 2930 2932 2933 2935 2937 2939 2941 2942 2942 2942 2941 2944 2945 2948 2950 2950 2952 2953 2955 2958 2958 2960 2964 2967 2968 2968 2969 2968 2970 2973 2974 2978 2978 2979 2977 2977 2977 2976 2977 2976 2974 2970 2972
2907 2910 2912 2913 2914 2916 2919 2921 2923 2925 2927 2929 2931 2932 2934 2936 2937 2939 2940 2941 2942 2943 2943 2944 2944 2945 2945 2945 2947 2949 2953 2955 2957 2959 2961 2962 2962 2964 2963 2966 2965 2968 2970 2968 2966 2967 2968 2969 2970 2969 2968 2969 2966 2966
2906 2908 2910 2911 2912 2914 2916 2919 2921 2923 2925 2927 2929 2931 2933 2934 2936 2937 2939 2940 2941 2944 2942 2941 2941 2942 2942 2942 2944 2946 2948 2951 2954 2954 2954 2954 2955 2958 2957 2956 2953 2959 2960 2960 2956 2962 2963 2963 2963 2961 2961 2962 2961 2962
2904 2906 2907 2909 2910 2912 2914 2917 2919 2921 2923 2925 2927 2929 2931 2932 2934 2935 2937 2939 2940 2940 2940 2939 2939 2939 2939 2940 2941 2941 2942 2944 2946 2946 2947 2947 2948 2951 2947 2941 2944 2950 2950 2950 2950 2956 2956 2956 2955 2954 2953 2955 2957 2955
2901 2903 2905 2907 2908 2910 2912 2914 2917 2919 2921 2923 2925 2927 2929 2930 2931 2933 2935 2937 2937 2937 2938 2937 2934 2934 2934 2935 2936 2937 2937 2937 2938 2938 2937 2940 2941 2941 2936 2931 2937 2942 2945 2944 2945 2948 2948 2949 2947 2947 2947 2948 2948 2948
2899 2901 2903 2904 2905 2907 2909 2912 2914 2917 2918 2920 2922 2924 2926 2927 2927 2928 2932 2934 2935 2935 2936 2934 2931 2932 2933 2933 2933 2933 2932 2933 2931 2932 2932 2932 2933 2933 2926 2924 2930 2933 2935 2936 2938 2939 2940 2941 2942 2942 2944 2942 2942 2941
2896 2898 2899 2901 2902 2904 2906 2909 2911 2913 2914 2916 2919 2921 2922 2922 2924 2928 2931 2931 2932 2936 2932 2929 2929 2929 2929 2929 2928 2928 2928 2928 2929 2925 2925 2928 2924 2918 2917 2922 2925 2927 2928 2931 2930 2932 2934 2937 2937 2937 2938 2936 2936 2937
2894 2895 2896 2898 2900 2902 2904 2906 2908 2910 2912 2915 2917 2919 2918 2921 2924 2926 2927 2927 2928 2928 2925 2921 2926 2925 2928 2927 2925 2925 2925 2925 2923 2921 2922 2919 2912 2912 2914 2916 2920 2923 2922 2924 2924 2927 2929 2932 2934 2934 2933 2933 2932 2934
2891 2893 2894 2896 2898 2900 2902 2904 2906 2909 2911 2912 2914 2915 2917 2919 2921 2922 2923 2923 2923 2920 2918 2918 2919 2919 2922 2923 2924 2925 2923 2923 2920 2919 2918 2914 2906 2906 2909 2911 2915 2917 2919 2921 2923 2924 2926 2927 2930 2931 2931 2930 2930 2930
2890 2891 2893 2895 2897 2899 2901 2902 2904 2906 2907 2910 2911 2912 2915 2917 2918 2919 2917 2918 2915 2915 2913 2914 2915 2915 2915 2918 2921 2920 2921 2920 2916 2916 2915 2910 2908 2905 2905 2907 2910 2910 2911 2913 2916 2918 2919 2921 2924 2925 2925 2926 2925 2926
2889 2891 2893 2894 2896 2897 2898 2899 2901 2902 2905 2907 2910 2910 2912 2913 2913 2911 2908 2907 2908 2907 2910 2912 2913 2912 2913 2917 2916 2917 2917 2915 2913 2908 2909 2908 2906 2906 2908 2908 2909 2909 2909 2909 2910 2911 2912 2915 2918 2920 2921 2920 2921 2922
2889 2891 2892 2893 2894 2894 2894 2895 2896 2899 2902 2906 2907 2908 2908 2905 2904 2902 2902 2903 2905 2906 2909 2910 2911 2912 2913 2914 2915 2914 2913 2912 2910 2908 2906 2906 2906 2905 2905 2904 2904 2904 2904 2905 2905 2906 2908 2911 2913 2915 2915 2916 2916 2919
2889 2891 2891 2891 2891 2891 2891 2890 2891 2896 2900 2903 2904 2903 2901 2901 2900 2900 2901 2901 2901 2902 2906 2908 2910 2911 2911 2913 2912 2912 2910 2907 2906 2904 2904 2904 2904 2903 2901 2900 2899 2898 2898 2898 2900 2902 2904 2906 2908 2909 2910 2912 2914 2918
2890 2891 2890 2889 2889 2889 2890 2891 2893 2897 2900 2901 2901 2898 2898 2898 2897 2898 2898 2899 2900 2899 2904 2907 2908 2909 2908 2909 2908 2907 2906 2904 2903 2903 2902 2902 2901 2901 2900 2898 2896 2895 2895 2895 2896 2897 2899 2902 2904 2905 2907 2910 2913 2916
2890 2890 2890 2888 2888 2890 2891 2893 2895 2896 2897 2897 2898 2897 2895 2894 2894 2895 2895 2896 2899 2899 2901 2904 2905 2905 2906 2905 2904 2903 2902 2902 2901 2901 2900 2898 2897 2896 2895 2894 2892 2891 2892 2892 2892 2894 2895 2897 2900 2903 2906 2910 2912 2915
2889 2889 2889 2888 2888 2890 2892 2893 2895 2895 2895 2895 2895 2894 2892 2890 2889 2890 2890 2892 2895 2897 2900 2901 2902 2902 2902 2901 2900 2899 2899 2899 2898 2897 2895 2893 2891 2890 2890 2890 2889 2889 2889 2890 2891 2892 2893 2895 2898 2902 2906 2909 2912 2914
2890 2889 2889 2889 2889 2890 2892 2893 2894 2894 2893 2893 2892 2892 2890 2887 2886 2886 2887 2887 2891 2894 2897 2898 2900 2898 2898 2898 2899 2898 2896 2895 2894 2892 2890 2887 2886 2885 2885 2885 2885 2886 2887 2889 2889 2891 2892 2895 2898 2902 2906 2908 2911 2913
2890 2889 2889 2889 2890 2890 2890 2891 2891 2892 2890 2890 2889 2888 2887 2886 2885 2885 2886 2887 2890 2892 2894 2895 2895 2896 2896 2896 2895 2894 2892 2890 2889 2887 2886 2884 2883 2882 2882 2882 2884 2886 2886 2887 2887 2889 2891 2893 2897 2901 2905 2908 2909 2911
2889 2888 2888 2888 2889 2889 2889 2888 2888 2888 2887 2886 2885 2885 2885 2884 2884 2884 2885 2886 2888 2889 2890 2891 2892 2893 2893 2892 2891 2890 2888 2886 2885 2884 2883 2882 2882 2882 2882 2883 2884 2886 2887 2888 2889 2890 2892 2896 2900 2902 2904 2906 2907 2908
2886 2885 2886 2887 2888 2888 2887 2887 2887 2886 2886 2884 2884 2883 2883 2883 2883 2884 2884 2885 2886 2887 2888 2889 2889 2889 2888 2888 2887 2886 2884 2882 2881 2880 2881 2882 2883 2884 2885 2885 2886 2887 2888 2890 2891 2893 2895 2897 2899 2900 2901 2903 2904 2904
2884 2884 2885 2886 2886 2886 2886 2884 2884 2883 2883 2882 2882 2882 2882 2882 2882 2883 2883 2882 2883 2884 2884 2885 2885 2885 2885 2885 2885 2884 2883 2881 2880 2881 2883 2884 2885 2886 2887 2887 2888 2889 2890 2891 2892 2893 2894 2895 2896 2897 2898 2899 2899 2899
2884 2884 2884 2883 2883 2882 2882 2881 2881 2881 2880 2880 2880 2880 2879 2880 2880 2879 2878 2879 2881 2881 2881 2881 2882 2883 2883 2884 2884 2884 2884 2884 2884 2885 2886 2887 2887 2888 2889 2889 2890 2890 2891 2891 2892 2893 2893 2893 2894 2894 2894 2894 2895 2895
2885 2884 2883 2880 2879 2879 2878 2877 2877 2878 2877 2878 2878 2877 2877 2877 2876 2875 2874 2875 2876 2877 2878 2879 2881 2882 2883 2883 2884 2884 2884 2885 2886 2886 2887 2888 2888 2889 2889 2890 2890 2890 2890 2890 2890 2890 2890 2890 2890 2890 2890 2890 2890 2890
2881 2879 2879 2876 2876 2876 2875 2874 2874 2874 2875 2875 2875 2875 2874 2874 2874 2872 2870 2871 2872 2874 2876 2878 2879 2881 2882 2883 2884 2885 2886 2886 2886 2886 2887 2887 2887 2887 2888 2888 2888 2888 2888 2888 2888 2887 2887 2887 2886 2886 2885 2885 2885 2885
2876 2875 2875 2874 2874 2873 2872 2872 2872 2872 2871 2872 2871 2872 2873 2872 2870 2869 2868 2869 2871 2873 2875 2876 2878 2880 2881 2882 2883 2884 2884 2885 2885 2886 2885 2885 2885 2886 2886 2886 2885 2885 2885 2884 2884 2884 2883 2882 2882 2881 2880 2880 2879 2879
2872 2871 2871 2870 2869 2868 2867 2867 2867 2867 2867 2867 2867 2868 2868 2867 2867 2868 2868 2869 2870 2871 2872 2874 2876 2877 2878 2879 2880 2881 2882 2882 2883 2883 2883 2883 2883 2883 2882 2882 2882 2881 2880 2880 2879 2878 2877 2877 2876 2875 2874 2873 2873 2872
2868 2867 2867 2865 2864 2863 2862 2862 2861 2861 2863 2862 2862 2862 2862 2862 2864 2864 2865 2866 2867 2868 2869 2870 2872 2873 2874 2876 2877 2877 2878 2878 2879 2879 2879 2880 2879 2879 2878 2878 2877 2876 2875 2875 2874 2873 2872 2871 2870 2868 2867 2866 2865 2864
2863 2862 2861 2860 2858 2857 2856 2857 2856 2856 2856 2856 2856 2856 2856 2858 2858 2859 2860 2861 2862 2863 2864 2865 2867 2868 2869 2871 2872 2873 2873 2874 2874 2874 2874 2874 2875 2874 2874 2873 2872 2871 2870 2869 2868 2867 2866 2865 2863 2862 2861 2860 2858 2858
2857 2855 2854 2853 2851 2851 2851 2850 2849 2849 2849 2849 2848 2849 2850 2851 2851 2852 2853 2854 2855 2856 2858 2859 2860 2862 2863 2865 2866 2867 2867 2867 2868 2868 2869 2869 2869 2869 2868 2867 2866 2866 2865 2863 2862 2861 2860 2858 2857 2856 2855 2854 2853 2852
2849 2848 2846 2844 2844 2843 2843 2842 2842 2841 2842 2842 2841 2842 2842 2843 2844 2845 2846 2847 2848 2850 2851 2853 2854 2855 2857 2858 2859 2859 2860 2861 2862 2862 2863 2863 2863 2862 2862 2861 2861 2860 2858 2857 2856 2855 2854 2853 2852 2851 2850 2848 2847 2847
2840 2839 2837 2836 2835 2834 2835 2836 2834 2833 2833 2833 2833 2835 2835 2836 2837 2838 2839 2840 2841 2843 2845 2847 2847 2849 2850 2850 2851 2852 2854 2855 2856 2856 2856 2856 2856 2856 2856 2855 2855 2854 2853 2852 2851 2850 2849 2848 2846 2845 2844 2843 2843 2842